Location: Bremen
(53.0793°N, 8.8017°E)
Time: 09:24:32
(UTC+01:00)

Tiros 1 - Visible Passes

Search period start: 03 December 2021 00:00
Search period end: 13 December 2021 00:00
Orbit: 630 x 664 km, 48.4° (Epoch: 02 December)

Date Brightness Start Highest point End Pass type
(mag) Time Alt. Az. Time Alt. Az. Time Alt. Az.
03 Dec 9.4 19:25:00 10° SSW 19:26:11 15° SSW 19:26:11 15° SSW visible
04 Dec 9.1 18:10:45 10° S 18:13:01 13° SE 18:13:30 13° SE visible
04 Dec 9.5 19:50:02 10° SW 19:51:10 16° SW 19:51:10 16° SW visible
05 Dec 8.6 18:34:48 10° SSW 18:38:24 22° SSE 18:38:25 22° SSE visible
05 Dec 9.9 20:15:28 10° WSW 20:16:05 13° WSW 20:16:05 13° WSW visible
06 Dec 9.3 17:20:47 10° SSE 17:22:45 13° SE 17:24:43 10° ESE visible
06 Dec 8.3 18:59:46 10° SW 19:03:18 32° S 19:03:18 32° S visible
07 Dec 8.8 17:44:37 10° SSW 17:48:06 21° SSE 17:50:29 15° ESE visible
07 Dec 8.5 19:25:11 10° WSW 19:28:08 33° SSW 19:28:08 33° SSW visible
08 Dec 8.2 18:09:31 10° SW 18:13:37 32° SSE 18:15:17 25° ESE visible
08 Dec 9.1 19:50:48 10° WSW 19:52:57 25° WSW 19:52:57 25° WSW visible
09 Dec 9.0 16:54:26 10° SSW 16:57:49 20° SSE 17:01:13 10° E visible
09 Dec 7.8 18:34:53 10° WSW 18:39:15 42° SSE 18:40:05 38° SE visible
09 Dec 9.7 20:16:33 10° W 20:17:44 17° WSW 20:17:44 17° WSW visible
10 Dec 8.4 17:19:15 10° SW 17:23:19 30° SSE 17:27:12 11° E visible
10 Dec 7.7 19:00:30 10° WSW 19:04:51 48° S 19:04:51 48° S visible
10 Dec 10.2 20:42:23 10° W 20:42:31 11° W 20:42:31 11° W visible
11 Dec 8.0 17:44:35 10° SW 17:48:56 41° SSE 17:51:59 18° ESE visible
11 Dec 8.2 19:26:14 10° W 19:29:38 39° SW 19:29:38 39° SW visible
12 Dec 7.8 18:10:11 10° WSW 18:14:38 47° S 18:16:47 27° ESE visible
12 Dec 9.0 19:52:03 10° W 19:54:27 26° WSW 19:54:27 26° WSW visible
